Location: Tr�vern
(48.0333°N, 4.6000°W)
Time: 19:12:13
(UTC+00:00)

Cosmos 614 Rocket - Pass Details

Date: 14 July 2020
Orbit: 732 x 764 km, 74.1° (Epoch: 12 August)

Event Time Altitude Azimuth Distance (km) Brightness Sun altitude
Exits shadow 02:23:10 23° 227° (SW) 1,523 5.0 -15.4°
Maximum altitude 02:26:09 55° 297° (WNW) 889 4.3 -15.2°
Drops below altitude 10° 02:31:13 10° 16° (NNE) 2,272 7.7 -14.8°
Sets 02:33:39 0° 20° (NNE) 3,206 9.0 -14.6°
